DEIMOS-2

Last updated on Thu Oct 30 2025 00:02:31 GMT+0000 (Coordinated Universal Time)

1 40013U 14033D 25302.47516578 .00003473 00000+0 34209-3 0 9991 2 40013 97.6101 179.7344 0002086 63.0961 297.0471 14.92672379603290
UTC large
Height (km)
Speed (km/s)
/
Latitude / Longitude
Inclination (degrees)
Orbital Period (minutes)
Azimuth
Elevation
Range (km)
Doppler Factor

Next 0 passes for location: London (51.5072 / 0.1276)

Sorry there are no passes over London.